Tracking 25656 objects as of 21-May-2022
HD Live streaming from Space Station
objects crossing your sky now

LEMUR 2 SCHMIDTFALL

Track LEMUR 2 SCHMIDTFALL now!
10-day predictions
LEMUR 2 SCHMIDTFALL is classified as:


NORAD ID: 46315
Int'l Code: 2020-061AV
Perigee: 521.4 km
Apogee: 523.4 km
Inclination: 97.5 °
Period: 94.9 minutes
Semi major axis: 6893 km
RCS: Unknown
Launch date: September 3, 2020
Source: United States (US)
Launch site: FRENCH GUIANA (FRGUI)
aabbcc
Your satellite tracking list
Your tracking list is empty




NASA's NSSDC Master Catalog

Two Line Element Set (TLE):
1 46315U 20061AV  22141.45974563  .00026206  00000-0  13298-2 0  9992
2 46315  97.4513 213.9168 0001466 211.9882 148.1262 15.16897013 94512
Source of the keplerian elements: AFSPC